Regional Weather Roundup
Issued by NWS Albany, NY

Home | Current Version | Previous Version | Graphics & Text | Print | Product List | Glossary Off
Versions: 1 2 3 4 5 6 7 8 9 10 11 12 13 14 15 16 17 18 19 20 21 22 23 24 25 26 27

000
ASUS41 KALY 201410
RWRALY

NEW YORK STATE HOURLY WEATHER ROUNDUP
NATIONAL WEATHER SERVICE ALBANY NY
1000 AM EDT WED SEP 20 2017

NOTE: "FAIR" INDICATES FEW OR NO CLOUDS BELOW 12,000 FEET WITH NO
SIGNIFICANT WEATHER AND/OR NO OBSTRUCTIONS TO VISIBILITY.

NYZ032-033-038>043-046>054-057>066-NYZ062>081-082-084-201500-
EAST


CITY           SKY/WX    TMP DP  RH WIND       PRES   REMARKS
ALBANY         CLOUDY    71  63  75 N9        29.99F
GLENS FALLS    CLOUDY    68  62  81 N8        30.01S
POUGHKEEPSIE   CLOUDY    71  62  73 N9        29.93R
NEWBURGH       PTSUNNY   73  66  78 NE14G23   29.95R
MONTGOMERY     CLOUDY    74  64  71 N15       29.93S
WHITE PLAINS   PTSUNNY   74  65  73 N17       29.88S
ISLIP          CLOUDY    74  67  78 N21G30    29.82R
NEW YORK CITY  CLOUDY    74  65  73 N18       29.87R
CENTRAL PARK   PTSUNNY   74  64  71 VRB5G17   29.91R
$$

NYZ005>009-017-018-044>046-055-056-201500-
CENTRAL


CITY           SKY/WX    TMP DP  RH WIND       PRES   REMARKS
FULTON         SUNNY     70  63  78 S3        30.04S
SYRACUSE       MOSUNNY   69  60  73 CALM      30.02F
ROME           SUNNY     67  60  78 CALM      30.05S
ELMIRA         FOG       61  61 100 SW3       30.04F VSB 3/4
BINGHAMTON     SUNNY     67  60  78 N5        30.05S
MONTICELLO     MOSUNNY   69  62  78 NW10      30.01S
$$

NYZ026>034-041>043-087-201500-
NORTH


CITY           SKY/WX    TMP DP  RH WIND       PRES   REMARKS
WATERTOWN      SUNNY     69  65  86 N6        30.04R
FORT DRUM      NOT AVBL
OGDENSBURG     FAIR      69  66  90 E5        30.06R
MASSENA        SUNNY     70  66  87 NE7       30.07R
SARANAC LAKE   SUNNY     65  61  87 NE3       30.08R
PLATTSBURGH    CLOUDY    71  61  70 N9        30.05R
$$

NYZ001>004-010>016-019>021-085-201500-
WEST


CITY           SKY/WX    TMP DP  RH WIND       PRES   REMARKS
NIAGARA FALLS  SUNNY     74  63  68 E3        30.04R
BUFFALO        MOSUNNY   71  62  73 E3        30.04S
DUNKIRK        SUNNY     69  64  84 S3        30.05R
JAMESTOWN      SUNNY     67  62  84 CALM      30.09R
WELLSVILLE     SUNNY     69  60  73 CALM      30.10S
ROCHESTER      CLOUDY    65  64  97 SW3       30.06R FOG
PENN YAN       SUNNY     68  61  78 CALM      30.06S
$$

             KEY
       WCI = WIND CHILL INDEX
       VSB = VISIBILITY
       HX  = HEAT INDEX
$$




USA.gov is the U.S. government's official web portal to all federal, state and local government web resources and services.